This is the latest recevied weather packets stored in our database for station/object KD2VWU. If no packets are shown the sender has not sent any weather packets the latest 10 day(s).
| Time | Temp. | Humidity | Pressure | Rain* | Wind** | Luminosity | Snow |
|---|---|---|---|---|---|---|---|
| 1777875619 | 5.56° C | 75% | 1009.4 hPa | 0 mm | - | - | - |
| 1777875316 | 5.56° C | 76% | 1009.4 hPa | 0 mm | - | - | - |
| 1777875013 | 5° C | 78% | 1009.4 hPa | 0 mm | - | - | - |
| 1777874709 | 5° C | 82% | 1009.6 hPa | 0 mm | - | - | - |
| 1777874405 | 5° C | 83% | 1009.5 hPa | 0 mm | - | - | - |
| 1777874103 | 4.44° C | 83% | 1009.5 hPa | 0 mm | - | - | - |
| 1777873801 | 4.44° C | 84% | 1009.5 hPa | 0 mm | - | - | - |
| 1777873497 | 4.44° C | 82% | 1009.2 hPa | 0 mm | - | - | - |
| 1777873194 | 5° C | 81% | 1009.3 hPa | 0 mm | - | - | - |
| 1777872890 | 5° C | 80% | 1009.3 hPa | 0 mm | - | - | - |
| 1777872589 | 5.56° C | 79% | 1009.2 hPa | 0 mm | - | - | - |
| 1777872286 | 5.56° C | 79% | 1009 hPa | 0 mm | - | - | - |
| 1777871984 | 5.56° C | 78% | 1009.1 hPa | 0 mm | - | - | - |
| 1777871679 | 5.56° C | 76% | 1009.2 hPa | 0 mm | - | - | - |
| 1777871376 | 5.56° C | 74% | 1009.1 hPa | 0 mm | - | - | - |
| 1777871073 | 5.56° C | 74% | 1009.1 hPa | 0 mm | - | - | - |
| 1777870771 | 5.56° C | 73% | 1009.1 hPa | 0 mm | - | - | - |
| 1777870466 | 5.56° C | 71% | 1009.1 hPa | 0 mm | - | - | - |
| 1777870162 | 6.11° C | 73% | 1009.1 hPa | 0 mm | - | - | - |
| 1777869860 | 6.11° C | 72% | 1009 hPa | 0 mm | - | - | - |
| 1777869557 | 6.11° C | 71% | 1009 hPa | 0 mm | - | - | - |
| 1777869254 | 6.67° C | 68% | 1008.9 hPa | 0 mm | - | - | - |
| 1777868952 | 6.67° C | 68% | 1008.9 hPa | 0 mm | - | - | - |
| 1777868648 | 6.67° C | 66% | 1009.1 hPa | 0 mm | - | - | - |
| 1777868344 | 6.67° C | 66% | 1009 hPa | 0 mm | - | - | - |
* Rain latest hour (hover to see other rain measurements)
** Current wind speed in m/s (hover to see current wind gust speed)